{"data":{"norad_id":60259,"epoch":"2026-05-25T03:52:05.915712Z","epoch_age_seconds":71324,"freshness":"FRESH","line1":"1 60259U 24131E   26145.16117958  .00001384  00000+0  58858-4 0  9992","line2":"2 60259  53.1613  57.4610 0001376  80.0377 280.0779 15.30195223103422","mean_motion":15.30195223,"eccentricity":0.0001376,"inclination_deg":53.1613,"raan_deg":57.461,"arg_perigee_deg":80.0377,"mean_anomaly_deg":280.0779,"bstar":5.8858e-5,"rev_number":10342,"period_min":94.10563948676,"perigee_km":474.28630950999,"apogee_km":476.17235592475,"semimajor_km":6853.3663327174,"source":"CELESTRAK","updated_at":"2026-05-25T13:38:19.198875Z"}}